| time (UTC) | temp F | wind direction | speed MPH | gust MPH | rain 1hr in | rain 24hr in | rain mn in | humidity % | barometer mb |
| 20260502170342 | 52 | 25 | 2.0 | 4.0 | 0.00 | 0.00 | 0.00 | 42 | 1018.6 |
| 20260502164329 | 52 | 355 | 2.0 | 4.0 | 0.00 | 0.00 | 0.00 | 41 | 1018.5 |
| 20260502163825 | 52 | 17 | 5.0 | 7.0 | 0.00 | 0.00 | 0.00 | 43 | 1018.5 |
| 20260502163322 | 51 | 351 | 3.0 | 6.0 | 0.00 | 0.00 | 0.00 | 46 | 1018.6 |
| 20260502162820 | 51 | 15 | 2.0 | 4.0 | 0.00 | 0.00 | 0.00 | 45 | 1018.7 |
| 20260502162316 | 51 | 312 | 4.0 | 6.0 | 0.00 | 0.00 | 0.00 | 45 | 1018.7 |
| 20260502161813 | 51 | 357 | 1.0 | 3.0 | 0.00 | 0.00 | 0.00 | 46 | 1018.7 |
| 20260502161309 | 51 | 317 | 4.0 | 8.0 | 0.00 | 0.00 | 0.00 | 44 | 1018.9 |
| 20260502160807 | 50 | 346 | 4.0 | 4.0 | 0.00 | 0.00 | 0.00 | 45 | 1018.7 |
| 20260502160306 | 51 | 300 | 4.0 | 7.0 | 0.00 | 0.00 | 0.00 | 46 | 1018.8 |
| 20260502152235 | 49 | 328 | 1.0 | 4.0 | 0.00 | 0.00 | 0.00 | 49 | 1018.8 |
| 20260502151732 | 49 | 333 | 2.0 | 3.0 | 0.00 | 0.00 | 0.00 | 52 | 1018.8 |
| 20260502151229 | 48 | 11 | 5.0 | 8.0 | 0.00 | 0.00 | 0.00 | 49 | 1018.9 |
| 20260502150727 | 48 | 28 | 2.0 | 4.0 | 0.00 | 0.00 | 0.00 | 52 | 1019.0 |
| 20260502150223 | 48 | 322 | 2.0 | 6.0 | 0.00 | 0.00 | 0.00 | 52 | 1018.9 |
| 20260502130612 | 42 | 340 | 0.0 | 2.0 | 0.00 | 0.00 | 0.00 | 75 | 1018.8 |
| 20260502130110 | 42 | 331 | 1.0 | 4.0 | 0.00 | 0.00 | 0.00 | 74 | 1018.9 |
| 20260502123555 | 41 | 39 | 0.0 | 2.0 | 0.00 | 0.00 | 0.00 | 81 | 1018.7 |
| 20260502123052 | 41 | 327 | 1.0 | 2.0 | 0.00 | 0.00 | 0.00 | 83 | 1018.8 |
| 20260502122548 | 41 | 348 | 0.0 | 0.0 | 0.00 | 0.00 | 0.00 | 85 | 1018.8 |
| 20260502122045 | 41 | 357 | 0.0 | 1.0 | 0.00 | 0.00 | 0.00 | 87 | 1018.6 |
| 20260502121543 | 40 | 18 | 0.0 | 0.0 | 0.00 | 0.00 | 0.00 | 90 | 1018.7 |
| 20260502121040 | 39 | 36 | 0.0 | 0.0 | 0.00 | 0.00 | 0.00 | 93 | 1018.8 |
| 20260502120536 | 38 | 36 | 0.0 | 0.0 | 0.00 | 0.00 | 0.00 | 95 | 1018.6 |
| 20260502115531 | 38 | 37 | 0.0 | 0.0 | 0.00 | 0.00 | 0.00 | 96 | 1018.6 |
| 20260502115027 | 38 | 37 | 0.0 | 0.0 | 0.00 | 0.00 | 0.00 | 96 | 1018.8 |
| 20260502114524 | 38 | 37 | 0.0 | 0.0 | 0.00 | 0.00 | 0.00 | 96 | 1018.4 |
| 20260502114020 | 38 | 37 | 0.0 | 0.0 | 0.00 | 0.00 | 0.00 | 96 | 1018.5 |
| 20260502113518 | 37 | 37 | 0.0 | 0.0 | 0.00 | 0.00 | 0.00 | 95 | 1018.3 |
| 20260502113017 | 37 | 37 | 0.0 | 0.0 | 0.00 | 0.00 | 0.00 | 95 | 1018.3 |
| 20260502112514 | 37 | 37 | 0.0 | 0.0 | 0.00 | 0.00 | 0.00 | 95 | 1018.3 |
| 20260502112011 | 37 | 37 | 0.0 | 0.0 | 0.00 | 0.00 | 0.00 | 95 | 1018.4 |
| 20260502111509 | 37 | 37 | 0.0 | 0.0 | 0.00 | 0.00 | 0.00 | 94 | 1018.1 |
| 20260502111006 | 37 | 37 | 0.0 | 0.0 | 0.00 | 0.00 | 0.00 | 94 | 1018.1 |
| 20260502110503 | 37 | 37 | 0.0 | 0.0 | 0.00 | 0.00 | 0.00 | 94 | 1017.9 |
| 20260502110001 | 37 | 37 | 0.0 | 0.0 | 0.00 | 0.00 | 0.00 | 94 | 1017.8 |
| 20260502105458 | 37 | 37 | 0.0 | 0.0 | 0.00 | 0.00 | 0.00 | 94 | 1017.8 |
| 20260502104955 | 38 | 37 | 0.0 | 0.0 | 0.00 | 0.00 | 0.00 | 94 | 1017.7 |
| 20260502104453 | 38 | 37 | 0.0 | 0.0 | 0.00 | 0.00 | 0.00 | 94 | 1017.7 |
| 20260502103950 | 38 | 36 | 0.0 | 0.0 | 0.00 | 0.00 | 0.00 | 95 | 1018.0 |
| 20260502103447 | 38 | 37 | 0.0 | 0.0 | 0.00 | 0.00 | 0.00 | 95 | 1018.0 |
| 20260502102944 | 38 | 37 | 0.0 | 0.0 | 0.00 | 0.00 | 0.00 | 95 | 1018.1 |
| 20260502102441 | 38 | 37 | 0.0 | 0.0 | 0.00 | 0.00 | 0.00 | 96 | 1018.0 |
| 20260502101938 | 38 | 37 | 0.0 | 0.0 | 0.00 | 0.00 | 0.00 | 96 | 1018.0 |
| 20260502101436 | 38 | 37 | 0.0 | 0.0 | 0.00 | 0.00 | 0.00 | 96 | 1018.0 |
| 20260502100934 | 38 | 37 | 0.0 | 0.0 | 0.00 | 0.00 | 0.00 | 96 | 1018.1 |
| 20260502100433 | 37 | 37 | 0.0 | 0.0 | 0.00 | 0.00 | 0.00 | 96 | 1018.0 |
| 20260502091408 | 36 | 37 | 0.0 | 0.0 | 0.00 | 0.00 | 0.00 | 96 | 1018.1 |
| 20260502090905 | 36 | 37 | 0.0 | 0.0 | 0.00 | 0.00 | 0.00 | 96 | 1017.9 |
| 20260502090401 | 36 | 37 | 0.0 | 0.0 | 0.00 | 0.00 | 0.00 | 95 | 1017.9 |
| 20260502071256 | 39 | 36 | 0.0 | 0.0 | 0.00 | 0.00 | 0.00 | 90 | 1017.7 |
| 20260502070754 | 39 | 36 | 0.0 | 0.0 | 0.00 | 0.00 | 0.00 | 90 | 1017.7 |
| 20260502070252 | 39 | 36 | 0.0 | 0.0 | 0.00 | 0.00 | 0.00 | 90 | 1017.7 |
| 20260502065750 | 39 | 36 | 0.0 | 0.0 | 0.00 | 0.00 | 0.00 | 91 | 1017.6 |
| 20260502065248 | 39 | 36 | 0.0 | 0.0 | 0.00 | 0.00 | 0.00 | 91 | 1017.5 |
| 20260502064746 | 39 | 36 | 0.0 | 0.0 | 0.00 | 0.00 | 0.00 | 90 | 1017.7 |
| 20260502064244 | 40 | 36 | 0.0 | 0.0 | 0.00 | 0.00 | 0.00 | 89 | 1017.7 |
| 20260502063741 | 40 | 36 | 0.0 | 0.0 | 0.00 | 0.00 | 0.00 | 89 | 1018.0 |
| 20260502063239 | 41 | 36 | 0.0 | 0.0 | 0.00 | 0.00 | 0.00 | 88 | 1018.1 |
| 20260502062735 | 41 | 36 | 0.0 | 0.0 | 0.00 | 0.00 | 0.00 | 88 | 1018.1 |
| 20260502062233 | 40 | 36 | 0.0 | 0.0 | 0.00 | 0.00 | 0.00 | 89 | 1018.3 |
| 20260502061731 | 40 | 37 | 0.0 | 0.0 | 0.00 | 0.00 | 0.00 | 91 | 1018.0 |
| 20260502061229 | 40 | 37 | 0.0 | 0.0 | 0.00 | 0.00 | 0.00 | 91 | 1018.3 |
| 20260502060724 | 40 | 37 | 0.0 | 0.0 | 0.00 | 0.00 | 0.00 | 91 | 1018.3 |
| 20260502060220 | 40 | 37 | 0.0 | 0.0 | 0.00 | 0.00 | 0.00 | 91 | 1018.5 |
| 20260502055718 | 40 | 37 | 0.0 | 0.0 | 0.00 | 0.00 | 0.00 | 91 | 1018.3 |
| 20260502055215 | 40 | 37 | 0.0 | 0.0 | 0.00 | 0.00 | 0.00 | 91 | 1018.4 |
| 20260502054715 | 40 | 37 | 0.0 | 0.0 | 0.00 | 0.00 | 0.00 | 91 | 1018.3 |
| 20260502054212 | 40 | 37 | 0.0 | 0.0 | 0.00 | 0.00 | 0.00 | 91 | 1018.2 |
| 20260502053709 | 40 | 37 | 0.0 | 0.0 | 0.00 | 0.00 | 0.00 | 91 | 1018.5 |
| 20260502053206 | 40 | 37 | 0.0 | 0.0 | 0.00 | 0.00 | 0.00 | 91 | 1018.4 |
| 20260502052704 | 40 | 37 | 0.0 | 0.0 | 0.00 | 0.00 | 0.00 | 90 | 1018.4 |
| 20260502052202 | 40 | 37 | 0.0 | 0.0 | 0.00 | 0.00 | 0.00 | 90 | 1018.4 |
| 20260502051700 | 40 | 37 | 0.0 | 0.0 | 0.00 | 0.00 | 0.00 | 90 | 1018.3 |
| 20260502051158 | 40 | 37 | 0.0 | 0.0 | 0.00 | 0.00 | 0.00 | 90 | 1018.1 |
| 20260502050654 | 40 | 37 | 0.0 | 0.0 | 0.00 | 0.00 | 0.00 | 89 | 1018.1 |
| 20260502050150 | 40 | 37 | 0.0 | 0.0 | 0.00 | 0.00 | 0.00 | 90 | 1018.2 |
| 20260502045647 | 40 | 37 | 0.0 | 0.0 | 0.00 | 0.00 | 0.00 | 90 | 1018.2 |
| 20260502045145 | 40 | 37 | 0.0 | 0.0 | 0.00 | 0.00 | 0.00 | 90 | 1018.1 |
| 20260502044641 | 39 | 37 | 0.0 | 0.0 | 0.00 | 0.00 | 0.00 | 90 | 1018.3 |
| 20260502044137 | 39 | 37 | 0.0 | 0.0 | 0.00 | 0.00 | 0.00 | 90 | 1018.2 |
| 20260502043635 | 39 | 37 | 0.0 | 0.0 | 0.00 | 0.00 | 0.00 | 90 | 1018.4 |
| 20260502043133 | 39 | 37 | 0.0 | 0.0 | 0.00 | 0.00 | 0.00 | 89 | 1018.3 |
| 20260502042632 | 40 | 37 | 0.0 | 0.0 | 0.00 | 0.00 | 0.00 | 89 | 1018.3 |
| 20260502042129 | 40 | 37 | 0.0 | 0.0 | 0.00 | 0.00 | 0.00 | 89 | 1018.3 |
| 20260502041627 | 40 | 37 | 0.0 | 0.0 | 0.00 | 0.00 | 0.00 | 89 | 1018.3 |
| 20260502041124 | 40 | 37 | 0.0 | 0.0 | 0.00 | 0.00 | 0.00 | 89 | 1018.2 |
| 20260502040620 | 40 | 37 | 0.0 | 0.0 | 0.00 | 0.00 | 0.00 | 89 | 1018.4 |
| 20260502040118 | 40 | 37 | 0.0 | 0.0 | 0.00 | 0.03 | 0.03 | 88 | 1018.2 |
| 20260502035614 | 40 | 37 | 0.0 | 0.0 | 0.00 | 0.03 | 0.03 | 88 | 1018.2 |
| 20260502035111 | 41 | 37 | 0.0 | 0.0 | 0.00 | 0.03 | 0.03 | 87 | 1018.4 |
| 20260502034609 | 41 | 37 | 0.0 | 0.0 | 0.00 | 0.03 | 0.03 | 87 | 1018.2 |
| 20260502034107 | 41 | 37 | 0.0 | 0.0 | 0.00 | 0.03 | 0.03 | 87 | 1018.5 |
| 20260502033605 | 41 | 37 | 0.0 | 0.0 | 0.00 | 0.03 | 0.03 | 87 | 1018.3 |
| 20260502033102 | 41 | 37 | 0.0 | 0.0 | 0.00 | 0.03 | 0.03 | 86 | 1018.3 |
| 20260502032558 | 41 | 36 | 0.0 | 0.0 | 0.00 | 0.03 | 0.03 | 85 | 1018.5 |
| 20260502032054 | 41 | 36 | 0.0 | 0.0 | 0.00 | 0.03 | 0.03 | 85 | 1018.4 |
| 20260502031552 | 41 | 36 | 0.0 | 0.0 | 0.00 | 0.03 | 0.03 | 84 | 1018.3 |
| 20260502031050 | 41 | 36 | 0.0 | 0.0 | 0.00 | 0.03 | 0.03 | 84 | 1018.2 |
| 20260502030549 | 41 | 36 | 0.0 | 0.0 | 0.00 | 0.03 | 0.03 | 85 | 1018.3 |
| 20260502030046 | 42 | 36 | 0.0 | 0.0 | 0.00 | 0.03 | 0.03 | 85 | 1018.2 |
| 20260502025543 | 42 | 36 | 1.0 | 1.0 | 0.00 | 0.03 | 0.03 | 84 | 1018.1 |
| 20260502025042 | 42 | 36 | 0.0 | 0.0 | 0.00 | 0.03 | 0.03 | 84 | 1018.2 |
| 20260502024538 | 42 | 36 | 0.0 | 0.0 | 0.00 | 0.03 | 0.03 | 85 | 1018.2 |
| 20260502024037 | 42 | 36 | 0.0 | 1.0 | 0.00 | 0.03 | 0.03 | 85 | 1018.1 |
| 20260502023534 | 43 | 35 | 0.0 | 0.0 | 0.00 | 0.03 | 0.03 | 84 | 1018.1 |
| 20260502023031 | 43 | 35 | 0.0 | 0.0 | 0.00 | 0.03 | 0.03 | 83 | 1018.0 |
| 20260502022528 | 43 | 35 | 0.0 | 0.0 | 0.00 | 0.03 | 0.03 | 81 | 1018.0 |
| 20260502022026 | 44 | 35 | 0.0 | 0.0 | 0.00 | 0.03 | 0.03 | 80 | 1018.0 |
| 20260502021523 | 44 | 35 | 0.0 | 0.0 | 0.00 | 0.03 | 0.03 | 78 | 1017.9 |
| 20260502021019 | 45 | 35 | 0.0 | 0.0 | 0.00 | 0.03 | 0.03 | 79 | 1017.8 |
| 20260502020517 | 45 | 35 | 0.0 | 0.0 | 0.00 | 0.03 | 0.03 | 76 | 1017.7 |
| 20260502020014 | 44 | 14 | 1.0 | 2.0 | 0.00 | 0.03 | 0.03 | 81 | 1017.7 |
| 20260502015512 | 45 | 352 | 0.0 | 0.0 | 0.00 | 0.03 | 0.03 | 82 | 1017.6 |
| 20260502015008 | 44 | 352 | 0.0 | 0.0 | 0.00 | 0.03 | 0.03 | 78 | 1017.5 |
| 20260502014505 | 44 | 352 | 0.0 | 0.0 | 0.00 | 0.03 | 0.03 | 76 | 1017.2 |
| 20260502014001 | 44 | 352 | 0.0 | 0.0 | 0.00 | 0.03 | 0.03 | 77 | 1017.5 |
| 20260502013457 | 45 | 352 | 0.0 | 0.0 | 0.00 | 0.03 | 0.03 | 78 | 1017.1 |
| 20260502012954 | 45 | 352 | 0.0 | 0.0 | 0.00 | 0.03 | 0.03 | 76 | 1017.2 |
| 20260502012451 | 45 | 352 | 0.0 | 0.0 | 0.00 | 0.03 | 0.03 | 76 | 1017.0 |
| 20260502011949 | 45 | 352 | 0.0 | 0.0 | 0.00 | 0.03 | 0.03 | 76 | 1017.2 |
| 20260502011444 | 45 | 352 | 0.0 | 0.0 | 0.00 | 0.03 | 0.03 | 74 | 1016.9 |
| 20260502010942 | 45 | 352 | 0.0 | 0.0 | 0.00 | 0.03 | 0.03 | 73 | 1016.8 |
| 20260502010438 | 46 | 352 | 0.0 | 0.0 | 0.00 | 0.03 | 0.03 | 75 | 1016.8 |
| 20260502005935 | 47 | 352 | 0.0 | 0.0 | 0.00 | 0.03 | 0.03 | 74 | 1016.5 |
| 20260502005433 | 48 | 353 | 0.0 | 0.0 | 0.00 | 0.03 | 0.03 | 65 | 1016.6 |
| 20260502004931 | 49 | 352 | 0.0 | 0.0 | 0.00 | 0.03 | 0.03 | 66 | 1016.5 |
| 20260502004426 | 49 | 316 | 0.0 | 2.0 | 0.00 | 0.03 | 0.03 | 60 | 1016.2 |
| 20260502003924 | 49 | 357 | 0.0 | 0.0 | 0.00 | 0.03 | 0.03 | 60 | 1016.3 |
| 20260502003421 | 49 | 353 | 1.0 | 2.0 | 0.00 | 0.03 | 0.03 | 59 | 1016.1 |
| 20260502002917 | 50 | 17 | 0.0 | 1.0 | 0.00 | 0.03 | 0.03 | 61 | 1015.8 |
| 20260502002415 | 50 | 359 | 0.0 | 1.0 | 0.00 | 0.03 | 0.03 | 60 | 1015.7 |
| 20260502001912 | 50 | 18 | 0.0 | 0.0 | 0.00 | 0.03 | 0.03 | 60 | 1015.7 |
| 20260502001409 | 50 | 14 | 2.0 | 2.0 | 0.00 | 0.03 | 0.03 | 59 | 1015.6 |
| 20260502000907 | 50 | 307 | 3.0 | 3.0 | 0.00 | 0.03 | 0.03 | 57 | 1015.7 |
| 20260502000405 | 51 | 350 | 1.0 | 2.0 | 0.00 | 0.03 | 0.03 | 56 | 1015.8 |
| 20260501235900 | 51 | 317 | 2.0 | 2.0 | 0.00 | 0.03 | 0.03 | 56 | 1016.0 |
| 20260501235356 | 51 | 29 | 2.0 | 3.0 | 0.00 | 0.03 | 0.03 | 55 | 1016.0 |
| 20260501234852 | 51 | 25 | 1.0 | 3.0 | 0.00 | 0.03 | 0.03 | 55 | 1016.0 |
| 20260501234349 | 52 | 27 | 1.0 | 2.0 | 0.00 | 0.03 | 0.03 | 54 | 1015.8 |
| 20260501233847 | 52 | 353 | 0.0 | 3.0 | 0.00 | 0.03 | 0.03 | 55 | 1015.7 |
| 20260501233344 | 52 | 29 | 2.0 | 4.0 | 0.00 | 0.03 | 0.03 | 53 | 1015.7 |
| 20260501232840 | 52 | 332 | 1.0 | 4.0 | 0.00 | 0.03 | 0.03 | 52 | 1015.8 |
| 20260501232337 | 53 | 339 | 2.0 | 3.0 | 0.00 | 0.03 | 0.03 | 51 | 1015.8 |
| 20260501231835 | 53 | 303 | 3.0 | 6.0 | 0.00 | 0.03 | 0.03 | 50 | 1015.6 |
| 20260501231332 | 53 | 310 | 4.0 | 4.0 | 0.00 | 0.03 | 0.03 | 50 | 1016.0 |
| 20260501230831 | 52 | 7 | 2.0 | 3.0 | 0.00 | 0.03 | 0.03 | 52 | 1016.0 |
| 20260501230330 | 52 | 355 | 3.0 | 4.0 | 0.00 | 0.03 | 0.03 | 51 | 1016.0 |
| 20260501225826 | 52 | 43 | 2.0 | 4.0 | 0.00 | 0.03 | 0.03 | 51 | 1016.0 |
| 20260501225324 | 52 | 14 | 2.0 | 4.0 | 0.00 | 0.03 | 0.03 | 51 | 1015.8 |
| 20260501224820 | 52 | 314 | 2.0 | 3.0 | 0.00 | 0.03 | 0.03 | 52 | 1015.7 |
| 20260501224318 | 53 | 299 | 4.0 | 6.0 | 0.00 | 0.03 | 0.03 | 51 | 1015.7 |
| 20260501223814 | 53 | 315 | 1.0 | 6.0 | 0.00 | 0.03 | 0.03 | 52 | 1015.6 |
| 20260501223310 | 53 | 324 | 2.0 | 4.0 | 0.00 | 0.03 | 0.03 | 52 | 1015.6 |
| 20260501222806 | 54 | 302 | 4.0 | 4.0 | 0.00 | 0.03 | 0.03 | 51 | 1015.8 |
| 20260501222305 | 54 | 306 | 4.0 | 9.0 | 0.00 | 0.03 | 0.03 | 53 | 1015.7 |
| 20260501221800 | 53 | 331 | 2.0 | 7.0 | 0.00 | 0.03 | 0.03 | 53 | 1015.6 |
| 20260501221257 | 53 | 296 | 2.0 | 3.0 | 0.00 | 0.03 | 0.03 | 53 | 1015.8 |
| 20260501220755 | 54 | 342 | 4.0 | 9.0 | 0.00 | 0.03 | 0.03 | 53 | 1015.8 |
| 20260501220252 | 54 | 344 | 2.0 | 4.0 | 0.00 | 0.03 | 0.03 | 53 | 1015.7 |
| 20260501215749 | 54 | 324 | 4.0 | 7.0 | 0.00 | 0.03 | 0.03 | 53 | 1015.7 |
| 20260501215244 | 54 | 6 | 4.0 | 9.0 | 0.00 | 0.03 | 0.03 | 52 | 1015.6 |
| 20260501214739 | 53 | 122 | 0.0 | 6.0 | 0.00 | 0.03 | 0.03 | 53 | 1015.8 |
| 20260501214236 | 53 | 342 | 6.0 | 8.0 | 0.00 | 0.03 | 0.03 | 53 | 1015.8 |
| 20260501213732 | 54 | 35 | 3.0 | 7.0 | 0.00 | 0.03 | 0.03 | 54 | 1015.6 |
| 20260501213229 | 54 | 306 | 4.0 | 6.0 | 0.00 | 0.03 | 0.03 | 55 | 1016.0 |
| 20260501212725 | 53 | 29 | 1.0 | 8.0 | 0.00 | 0.03 | 0.03 | 56 | 1015.7 |
| 20260501212221 | 52 | 7 | 2.0 | 6.0 | 0.00 | 0.03 | 0.03 | 57 | 1015.7 |
| 20260501211718 | 54 | 324 | 3.0 | 8.0 | 0.00 | 0.03 | 0.03 | 57 | 1015.8 |
| 20260501211216 | 53 | 6 | 2.0 | 6.0 | 0.00 | 0.03 | 0.03 | 59 | 1015.7 |
| 20260501210713 | 53 | 350 | 2.0 | 3.0 | 0.00 | 0.03 | 0.03 | 58 | 1015.7 |
| 20260501210209 | 53 | 4 | 3.0 | 7.0 | 0.00 | 0.03 | 0.03 | 57 | 1015.7 |
| 20260501205705 | 54 | 156 | 1.0 | 4.0 | 0.00 | 0.03 | 0.03 | 57 | 1015.7 |
| 20260501205203 | 54 | 37 | 2.0 | 7.0 | 0.00 | 0.03 | 0.03 | 56 | 1015.6 |
| 20260501204659 | 53 | 345 | 2.0 | 6.0 | 0.00 | 0.03 | 0.03 | 58 | 1015.6 |
| 20260501204155 | 53 | 307 | 4.0 | 9.0 | 0.00 | 0.03 | 0.03 | 58 | 1015.7 |
| 20260501203652 | 53 | 302 | 3.0 | 7.0 | 0.00 | 0.03 | 0.03 | 58 | 1015.7 |
| 20260501203150 | 53 | 311 | 3.0 | 8.0 | 0.00 | 0.03 | 0.03 | 62 | 1015.6 |
| 20260501202647 | 52 | 293 | 4.0 | 7.0 | 0.00 | 0.03 | 0.03 | 61 | 1015.5 |
| 20260501202143 | 53 | 44 | 4.0 | 6.0 | 0.00 | 0.03 | 0.03 | 61 | 1015.4 |
| 20260501201640 | 54 | 18 | 5.0 | 7.0 | 0.00 | 0.03 | 0.03 | 59 | 1015.4 |
| 20260501201137 | 54 | 14 | 5.0 | 9.0 | 0.00 | 0.03 | 0.03 | 60 | 1015.6 |
| 20260501200634 | 55 | 13 | 5.0 | 10.0 | 0.00 | 0.03 | 0.03 | 57 | 1015.3 |
| 20260501200132 | 55 | 298 | 2.0 | 4.0 | 0.00 | 0.03 | 0.03 | 59 | 1015.4 |
| 20260501195629 | 54 | 359 | 3.0 | 3.0 | 0.00 | 0.03 | 0.03 | 59 | 1015.6 |
| 20260501195124 | 54 | 6 | 5.0 | 8.0 | 0.00 | 0.03 | 0.03 | 59 | 1015.5 |
| 20260501194620 | 54 | 320 | 5.0 | 7.0 | 0.00 | 0.03 | 0.03 | 61 | 1015.5 |
| 20260501194116 | 54 | 343 | 3.0 | 4.0 | 0.00 | 0.03 | 0.03 | 60 | 1015.5 |
| 20260501193613 | 54 | 27 | 3.0 | 9.0 | 0.00 | 0.03 | 0.03 | 60 | 1015.4 |
| 20260501193112 | 53 | 334 | 4.0 | 7.0 | 0.00 | 0.03 | 0.03 | 59 | 1015.5 |
| 20260501192608 | 54 | 4 | 5.0 | 7.0 | 0.00 | 0.03 | 0.03 | 59 | 1015.6 |
| 20260501192106 | 55 | 353 | 3.0 | 6.0 | 0.00 | 0.03 | 0.03 | 59 | 1015.5 |
| 20260501191603 | 54 | 321 | 4.0 | 8.0 | 0.00 | 0.03 | 0.03 | 57 | 1015.6 |
| 20260501191100 | 54 | 34 | 5.0 | 7.0 | 0.00 | 0.03 | 0.03 | 58 | 1015.4 |
| 20260501190556 | 52 | 267 | 2.0 | 7.0 | 0.00 | 0.03 | 0.03 | 62 | 1015.5 |
| 20260501190051 | 52 | 314 | 2.0 | 4.0 | 0.00 | 0.03 | 0.03 | 65 | 1015.6 |
| 20260501185548 | 55 | 314 | 5.0 | 8.0 | 0.00 | 0.03 | 0.03 | 61 | 1015.3 |
| 20260501185044 | 55 | 323 | 3.0 | 4.0 | 0.00 | 0.03 | 0.03 | 60 | 1015.3 |
| 20260501184540 | 53 | 326 | 5.0 | 9.0 | 0.00 | 0.03 | 0.03 | 62 | 1015.4 |
| 20260501184039 | 52 | 345 | 5.0 | 7.0 | 0.00 | 0.03 | 0.03 | 65 | 1015.2 |
| 20260501183537 | 53 | 325 | 3.0 | 7.0 | 0.00 | 0.03 | 0.03 | 64 | 1015.3 |
| 20260501183033 | 55 | 323 | 7.0 | 11.0 | 0.00 | 0.03 | 0.03 | 60 | 1015.3 |
| 20260501182530 | 54 | 1 | 6.0 | 8.0 | 0.00 | 0.03 | 0.03 | 59 | 1015.4 |
| 20260501182027 | 53 | 312 | 2.0 | 10.0 | 0.00 | 0.03 | 0.03 | 65 | 1015.0 |
| 20260501181524 | 52 | 301 | 5.0 | 7.0 | 0.00 | 0.03 | 0.03 | 66 | 1015.1 |
| 20260501181021 | 53 | 294 | 5.0 | 8.0 | 0.00 | 0.03 | 0.03 | 65 | 1015.1 |
| 20260501180519 | 52 | 324 | 4.0 | 8.0 | 0.00 | 0.03 | 0.03 | 65 | 1015.3 |
| 20260501180015 | 54 | 307 | 4.0 | 8.0 | 0.00 | 0.03 | 0.03 | 63 | 1015.1 |